Погода в Нарыне

Россия / Республика Тыва     50°11′59″N   95°34′09″E
темп.,
°C
ветер,
м/с
пор.,
м/с
влажн.,
%
обл.,
%
осадки,
мм/ч
давл.,
гПа
погр.,
м
28 июня, вт
вт2801:00+20в44369 0.0 100150
04:00+18в443913 0.0 100146
07:00+23вюв243444 0.0 1000209
10:00+28ююз552351 0.0 9991189
13:00+31зюз571778 0.0 9973040
16:00+31з681836 0.0 9963307
19:00+19ссв11155594 0.0 1001724
22:00+15св5875100 2.0 1003230
29 июня, ср
ср2901:00+13ссв228435 2.1 100530
04:00+11с1293100 0.9 100638
07:00+13ююз2283100 2.0 1007347
10:00+17сз3363100 1.9 1005723
13:00+22з33420 1.9 10041433
16:00+25зсз55321 0.0 10012190
19:00+23ссв55305 0.0 10021513
22:00+15всв44400 0.0 100430
30 июня, чт
чт3001:00+14всв43480 0.0 100533
04:00+13в33490 0.0 100522
07:00+19в33356 0.0 1004154
10:00+26ю342412 0.0 10021213
13:00+28юз4517100 0.0 10012932
16:00+29з451588 0.0 9993496
19:00+28ю2222100 0.0 99825
22:00+19в332684 0.0 100015
1 июля, пт
пт101:00+18в332981 0.0 100020
04:00+18св2229100 0.0 100024
07:00+19ссз0137100 0.0 100159
10:00+23всв2232100 0.0 1000683
13:00+28зюз49245 0.0 9982905
16:00+29з572313 0.0 9973007
19:00+27зюз3427100 0.0 9961173
22:00+23всв333387 0.0 99755
2 июля, сб
сб201:00+14св457279 0.0 1000101
04:00+13св3375100 0.0 100169
07:00+15ююз1267100 0.3 1002330
10:00+20зсз444714 0.1 10021289
13:00+22зсз56399 0.1 10011927
16:00+22сз66321 0.0 10012161
19:00+21ссв54316 0.0 10011350
22:00+15св455392 0.1 100287